^^
B2 Weather Station Historical Data
Daily Summary for December 26, 2017 Units:  English    Metric   Both
Daily Weekly Monthly Yearly Custom
  High: Low: Average:
Temperature: 6.6 °F -2.2 °F 1.6 °F
Dew Point: -4.0 °F -8.8 °F -6.4 °F
Humidity: 76% 58% 69%
Wind Speed: 12.7mph 0.0mph 6.9mph
Wind Gust: 12.7mph - -
Wind- - WNW
Pressure: 30.74 in 30.52 in -
Precipitation: 0.00 in    
Historical Graphs
 
 
Tabular Data for December 26, 2017
Time Temperature Dew Point Pressure Wind Wind Speed Wind Gust Humidity Rainfall Rate (Hourly) solar
00:02 2.9 °F -5.3 °F 30.52 in NW 9.2 mph 9.2 mph 68% 0.00 in 0.0 W/m2
00:03 2.9 °F -5.3 °F 30.52 in WNW 6.9 mph 6.9 mph 68% 0.00 in 0.0 W/m2
00:08 2.8 °F -5.4 °F 30.52 in WNW 6.9 mph 6.9 mph 68% 0.00 in 0.0 W/m2
00:09 2.8 °F -5.4 °F 30.52 in WNW 6.9 mph 6.9 mph 68% 0.00 in 0.0 W/m2
00:12 2.7 °F -5.5 °F 30.52 in WNW 5.8 mph 5.8 mph 68% 0.00 in 0.0 W/m2
00:16 2.6 °F -5.6 °F 30.52 in WNW 5.8 mph 5.8 mph 68% 0.00 in 0.0 W/m2
00:19 2.5 °F -5.7 °F 30.52 in NW 8.1 mph 8.1 mph 68% 0.00 in 0.0 W/m2
00:21 2.5 °F -5.7 °F 30.52 in NW 8.1 mph 8.1 mph 68% 0.00 in 0.0 W/m2
00:26 2.4 °F -5.8 °F 30.52 in NW 5.8 mph 5.8 mph 68% 0.00 in 0.0 W/m2
00:29 2.3 °F -5.9 °F 30.52 in NW 9.2 mph 9.2 mph 68% 0.00 in 0.0 W/m2
00:34 2.3 °F -5.9 °F 30.52 in WNW 6.9 mph 6.9 mph 68% 0.00 in 0.0 W/m2
00:38 2.3 °F -5.9 °F 30.52 in NW 10.4 mph 10.4 mph 68% 0.00 in 0.0 W/m2
00:43 2.2 °F -6.0 °F 30.53 in NW 8.1 mph 8.1 mph 68% 0.00 in 0.0 W/m2
00:45 2.2 °F -6.0 °F 30.53 in NW 8.1 mph 8.1 mph 68% 0.00 in 0.0 W/m2
00:50 2.3 °F -5.6 °F 30.53 in WNW 9.2 mph 9.2 mph 69% 0.00 in 0.0 W/m2
00:51 2.2 °F -6.0 °F 30.53 in WNW 10.0 mph 10.0 mph 68% 0.00 in 0.0 W/m2
00:56 2.3 °F -5.9 °F 30.53 in NW 11.5 mph 11.5 mph 68% 0.00 in 0.0 W/m2
01:01 2.3 °F -6.2 °F 30.53 in WNW 9.2 mph 9.2 mph 67% 0.00 in 0.0 W/m2
01:03 2.3 °F -6.2 °F 30.53 in WNW 8.1 mph 8.1 mph 67% 0.00 in 0.0 W/m2
01:07 2.2 °F -6.3 °F 30.53 in NW 9.2 mph 9.2 mph 67% 0.00 in 0.0 W/m2
01:09 2.1 °F -6.4 °F 30.53 in NW 10.0 mph 10.0 mph 67% 0.00 in 0.0 W/m2
01:12 2.0 °F -6.1 °F 30.54 in WNW 9.2 mph 9.2 mph 68% 0.00 in 0.0 W/m2
01:14 2.0 °F -6.1 °F 30.54 in WNW 8.1 mph 8.1 mph 68% 0.00 in 0.0 W/m2
01:17 2.0 °F -6.1 °F 30.54 in WNW 10.0 mph 10.0 mph 68% 0.00 in 0.0 W/m2
01:22 2.0 °F -6.1 °F 30.54 in West 9.0 mph 9.0 mph 68% 0.00 in 0.0 W/m2
01:27 1.9 °F -6.2 °F 30.54 in WNW 10.4 mph 10.4 mph 68% 0.00 in 0.0 W/m2
01:28 1.9 °F -6.2 °F 30.54 in West 9.2 mph 9.2 mph 68% 0.00 in 0.0 W/m2
01:33 1.9 °F -6.2 °F 30.54 in WNW 10.4 mph 10.4 mph 68% 0.00 in 0.0 W/m2
01:35 1.9 °F -6.2 °F 30.54 in WNW 10.4 mph 10.4 mph 68% 0.00 in 0.0 W/m2
01:37 1.8 °F -6.3 °F 30.54 in WNW 9.2 mph 9.2 mph 68% 0.00 in 0.0 W/m2
01:41 1.8 °F -6.0 °F 30.55 in NW 8.1 mph 8.1 mph 69% 0.00 in 0.0 W/m2
01:44 1.7 °F -6.1 °F 30.55 in NW 6.9 mph 6.9 mph 69% 0.00 in 0.0 W/m2
01:46 1.7 °F -6.1 °F 30.55 in West 8.1 mph 8.1 mph 69% 0.00 in 0.0 W/m2
01:51 1.5 °F -6.3 °F 30.55 in WNW 10.4 mph 10.4 mph 69% 0.00 in 0.0 W/m2
01:53 1.5 °F -6.3 °F 30.55 in WNW 9.2 mph 9.2 mph 69% 0.00 in 0.0 W/m2
01:57 1.5 °F -6.3 °F 30.55 in WNW 6.9 mph 6.9 mph 69% 0.00 in 0.0 W/m2
02:00 1.4 °F -6.4 °F 30.55 in WNW 9.2 mph 9.2 mph 69% 0.00 in 0.0 W/m2
02:04 1.3 °F -6.5 °F 30.56 in WNW 9.2 mph 9.2 mph 69% 0.00 in 0.0 W/m2
02:07 1.3 °F -6.5 °F 30.56 in WNW 9.2 mph 9.2 mph 69% 0.00 in 0.0 W/m2
02:10 1.3 °F -6.5 °F 30.56 in WNW 8.1 mph 8.1 mph 69% 0.00 in 0.0 W/m2
02:15 1.1 °F -6.4 °F 30.56 in WNW 8.1 mph 8.1 mph 70% 0.00 in 0.0 W/m2
02:16 1.1 °F -6.4 °F 30.56 in WNW 6.9 mph 6.9 mph 70% 0.00 in 0.0 W/m2
02:21 1.1 °F -6.4 °F 30.56 in WNW 7.0 mph 7.0 mph 70% 0.00 in 0.0 W/m2
02:26 1.1 °F -6.4 °F 30.57 in WNW 6.9 mph 6.9 mph 70% 0.00 in 0.0 W/m2
02:31 1.2 °F -6.3 °F 30.57 in WNW 10.4 mph 10.4 mph 70% 0.00 in 0.0 W/m2
02:36 1.3 °F -6.2 °F 30.57 in WNW 9.2 mph 9.2 mph 70% 0.00 in 0.0 W/m2
02:37 1.3 °F -6.2 °F 30.57 in WNW 9.2 mph 9.2 mph 70% 0.00 in 0.0 W/m2
02:42 1.3 °F -6.2 °F 30.57 in WNW 10.4 mph 10.4 mph 70% 0.00 in 0.0 W/m2
02:43 1.3 °F -6.2 °F 30.57 in WNW 10.4 mph 10.4 mph 70% 0.00 in 0.0 W/m2
02:48 1.3 °F -5.9 °F 30.58 in West 8.1 mph 8.1 mph 71% 0.00 in 0.0 W/m2
02:51 1.3 °F -5.9 °F 30.58 in West 9.2 mph 9.2 mph 71% 0.00 in 0.0 W/m2
02:54 1.3 °F -5.9 °F 30.58 in WNW 11.5 mph 11.5 mph 71% 0.00 in 0.0 W/m2
02:59 1.3 °F -6.2 °F 30.58 in NW 8.0 mph 8.0 mph 70% 0.00 in 0.0 W/m2
03:01 1.3 °F -6.2 °F 30.58 in West 11.5 mph 11.5 mph 70% 0.00 in 0.0 W/m2
03:05 1.3 °F -5.9 °F 30.58 in NW 6.9 mph 6.9 mph 71% 0.00 in 0.0 W/m2
03:06 1.2 °F -6.0 °F 30.58 in WNW 12.7 mph 12.7 mph 71% 0.00 in 0.0 W/m2
03:11 1.1 °F -6.4 °F 30.58 in NW 9.2 mph 9.2 mph 70% 0.00 in 0.0 W/m2
03:12 1.1 °F -6.4 °F 30.58 in NW 9.2 mph 9.2 mph 70% 0.00 in 0.0 W/m2
03:17 1.0 °F -6.2 °F 30.58 in NW 10.4 mph 10.4 mph 71% 0.00 in 0.0 W/m2
03:20 0.9 °F -6.3 °F 30.58 in NW 9.2 mph 9.2 mph 71% 0.00 in 0.0 W/m2
03:22 0.9 °F -6.3 °F 30.58 in NW 6.9 mph 6.9 mph 71% 0.00 in 0.0 W/m2
03:25 0.8 °F -6.4 °F 30.58 in WNW 8.1 mph 8.1 mph 71% 0.00 in 0.0 W/m2
03:28 0.7 °F -6.5 °F 30.58 in WNW 9.2 mph 9.2 mph 71% 0.00 in 0.0 W/m2
03:31 0.8 °F -6.4 °F 30.58 in West 9.2 mph 9.2 mph 71% 0.00 in 0.0 W/m2
03:35 0.7 °F -6.5 °F 30.58 in West 9.2 mph 9.2 mph 71% 0.00 in 0.0 W/m2
03:37 0.7 °F -6.5 °F 30.59 in WNW 7.0 mph 7.0 mph 71% 0.00 in 0.0 W/m2
03:41 0.6 °F -6.6 °F 30.58 in West 8.1 mph 8.1 mph 71% 0.00 in 0.0 W/m2
03:44 0.6 °F -6.6 °F 30.58 in WNW 5.8 mph 5.8 mph 71% 0.00 in 0.0 W/m2
03:49 0.5 °F -6.4 °F 30.59 in WNW 6.9 mph 6.9 mph 72% 0.00 in 0.0 W/m2
03:54 0.4 °F -6.5 °F 30.59 in WNW 5.8 mph 5.8 mph 72% 0.00 in 0.0 W/m2
03:55 0.4 °F -6.5 °F 30.59 in WNW 5.8 mph 5.8 mph 72% 0.00 in 0.0 W/m2
04:00 0.3 °F -6.6 °F 30.59 in WNW 6.0 mph 6.0 mph 72% 0.00 in 0.0 W/m2
04:02 0.3 °F -6.6 °F 30.59 in WNW 5.8 mph 5.8 mph 72% 0.00 in 0.0 W/m2
04:06 0.2 °F -6.7 °F 30.59 in WNW 6.9 mph 6.9 mph 72% 0.00 in 0.0 W/m2
04:11 0.1 °F -6.8 °F 30.59 in WNW 8.1 mph 8.1 mph 72% 0.00 in 0.0 W/m2
04:13 0.1 °F -6.8 °F 30.59 in WNW 8.1 mph 8.1 mph 72% 0.00 in 0.0 W/m2
04:16 0.0 °F -6.9 °F 30.59 in WNW 5.8 mph 5.8 mph 72% 0.00 in 0.0 W/m2
04:18 0.0 °F -6.9 °F 30.59 in WNW 3.5 mph 3.5 mph 72% 0.00 in 0.0 W/m2
04:23 -0.1 °F -7.0 °F 30.59 in NW 6.9 mph 6.9 mph 72% 0.00 in 0.0 W/m2
04:25 -0.1 °F -6.7 °F 30.59 in NW 9.2 mph 9.2 mph 73% 0.00 in 0.0 W/m2
04:27 -0.1 °F -6.7 °F 30.59 in WNW 5.8 mph 5.8 mph 73% 0.00 in 0.0 W/m2
04:32 -0.2 °F -6.8 °F 30.59 in NW 5.8 mph 5.8 mph 73% 0.00 in 0.0 W/m2
04:34 -0.2 °F -6.8 °F 30.59 in WNW 5.8 mph 5.8 mph 73% 0.00 in 0.0 W/m2
04:39 -0.3 °F -6.9 °F 30.60 in WNW 5.8 mph 5.8 mph 73% 0.00 in 0.0 W/m2
04:44 -0.4 °F -7.0 °F 30.60 in WNW 5.8 mph 5.8 mph 73% 0.00 in 0.0 W/m2
04:45 -0.3 °F -6.9 °F 30.60 in WNW 5.8 mph 5.8 mph 73% 0.00 in 0.0 W/m2
04:50 -0.4 °F -6.7 °F 30.60 in WNW 8.1 mph 8.1 mph 74% 0.00 in 0.0 W/m2
04:52 -0.5 °F -6.8 °F 30.60 in WNW 4.6 mph 4.6 mph 74% 0.00 in 0.0 W/m2
04:57 -0.5 °F -6.8 °F 30.60 in NW 6.9 mph 6.9 mph 74% 0.00 in 0.0 W/m2
04:58 -0.5 °F -6.8 °F 30.60 in NW 5.8 mph 5.8 mph 74% 0.00 in 0.0 W/m2
05:00 -0.5 °F -6.8 °F 30.60 in WNW 6.9 mph 6.9 mph 74% 0.00 in 0.0 W/m2
05:05 -0.6 °F -6.9 °F 30.60 in NW 8.1 mph 8.1 mph 74% 0.00 in 0.0 W/m2
05:09 -0.6 °F -6.9 °F 30.61 in NW 6.9 mph 6.9 mph 74% 0.00 in 0.0 W/m2
05:11 -0.6 °F -6.9 °F 30.61 in WNW 6.9 mph 6.9 mph 74% 0.00 in 0.0 W/m2
05:15 -0.7 °F -7.0 °F 30.61 in WNW 6.9 mph 6.9 mph 74% 0.00 in 0.0 W/m2
05:16 -0.6 °F -6.9 °F 30.61 in WNW 6.9 mph 6.9 mph 74% 0.00 in 0.0 W/m2
05:21 -0.7 °F -7.3 °F 30.61 in WNW 6.9 mph 6.9 mph 73% 0.00 in 0.0 W/m2
05:23 -0.7 °F -7.3 °F 30.61 in NW 6.9 mph 6.9 mph 73% 0.00 in 0.0 W/m2
05:26 -0.7 °F -7.3 °F 30.61 in WNW 5.8 mph 5.8 mph 73% 0.00 in 0.0 W/m2
05:31 -0.7 °F -7.3 °F 30.61 in WNW 9.2 mph 9.2 mph 73% 0.00 in 0.0 W/m2
05:33 -0.7 °F -7.3 °F 30.61 in WNW 11.5 mph 11.5 mph 73% 0.00 in 0.0 W/m2
05:38 -0.8 °F -7.7 °F 30.61 in WNW 10.4 mph 10.4 mph 72% 0.00 in 0.0 W/m2
05:39 -0.8 °F -7.7 °F 30.61 in NW 10.4 mph 10.4 mph 72% 0.00 in 0.0 W/m2
05:40 -0.9 °F -7.8 °F 30.61 in WNW 6.9 mph 6.9 mph 72% 0.00 in 0.0 W/m2
05:44 -0.9 °F -7.8 °F 30.62 in NW 9.2 mph 9.2 mph 72% 0.00 in 0.0 W/m2
05:49 -1.0 °F -7.9 °F 30.62 in WNW 10.4 mph 10.4 mph 72% 0.00 in 0.0 W/m2
05:50 -1.0 °F -7.9 °F 30.62 in WNW 6.9 mph 6.9 mph 72% 0.00 in 0.0 W/m2
05:54 -1.0 °F -7.9 °F 30.62 in NW 10.4 mph 10.4 mph 72% 0.00 in 0.0 W/m2
05:56 -1.1 °F -8.0 °F 30.62 in WNW 5.0 mph 5.0 mph 72% 0.00 in 0.0 W/m2
06:01 -1.2 °F -8.0 °F 30.62 in WNW 8.1 mph 8.1 mph 72% 0.00 in 0.0 W/m2
06:02 -1.2 °F -8.0 °F 30.62 in NW 9.2 mph 9.2 mph 72% 0.00 in 0.0 W/m2
06:05 -1.2 °F -8.0 °F 30.62 in WNW 8.1 mph 8.1 mph 72% 0.00 in 0.0 W/m2
06:07 -1.2 °F -8.0 °F 30.62 in WNW 4.6 mph 4.6 mph 72% 0.00 in 0.0 W/m2
06:12 -1.2 °F -8.0 °F 30.63 in WNW 8.1 mph 8.1 mph 72% 0.00 in 0.0 W/m2
06:13 -1.1 °F -8.0 °F 30.63 in North 8.1 mph 8.1 mph 72% 0.00 in 0.0 W/m2
06:18 -1.1 °F -8.0 °F 30.63 in WNW 6.0 mph 6.0 mph 72% 0.00 in 0.0 W/m2
06:20 -1.1 °F -7.7 °F 30.63 in WNW 4.6 mph 4.6 mph 73% 0.00 in 0.0 W/m2
06:25 -1.0 °F -7.6 °F 30.63 in WNW 5.8 mph 5.8 mph 73% 0.00 in 0.0 W/m2
06:30 -1.0 °F -7.6 °F 30.63 in NW 4.6 mph 4.6 mph 73% 0.00 in 0.0 W/m2
06:34 -1.0 °F -7.6 °F 30.63 in WNW 9.2 mph 9.2 mph 73% 0.00 in 0.0 W/m2
06:39 -1.0 °F -7.6 °F 30.63 in NW 10.4 mph 10.4 mph 73% 0.00 in 0.0 W/m2
06:41 -1.0 °F -7.6 °F 30.63 in WNW 9.2 mph 9.2 mph 73% 0.00 in 0.0 W/m2
06:46 -1.2 °F -8.0 °F 30.63 in NW 6.9 mph 6.9 mph 72% 0.00 in 0.0 W/m2
06:50 -1.2 °F -8.0 °F 30.63 in WNW 8.1 mph 8.1 mph 72% 0.00 in 0.0 W/m2
06:52 -1.3 °F -8.1 °F 30.63 in WNW 8.1 mph 8.1 mph 72% 0.00 in 0.0 W/m2
06:58 -1.4 °F -8.2 °F 30.64 in WNW 4.6 mph 4.6 mph 72% 0.00 in 0.0 W/m2
06:59 -1.4 °F -8.2 °F 30.64 in West 5.8 mph 5.8 mph 72% 0.00 in 0.0 W/m2
07:02 -1.4 °F -8.2 °F 30.64 in West 5.8 mph 5.8 mph 72% 0.00 in 0.0 W/m2
07:06 -1.5 °F -8.3 °F 30.64 in West 4.6 mph 4.6 mph 72% 0.00 in 0.0 W/m2
07:10 -1.5 °F -8.3 °F 30.64 in WNW 9.2 mph 9.2 mph 72% 0.00 in 0.0 W/m2
07:11 -1.5 °F -8.3 °F 30.64 in West 8.1 mph 8.1 mph 72% 0.00 in 0.0 W/m2
07:16 -1.6 °F -8.2 °F 30.65 in West 7.0 mph 7.0 mph 73% 0.00 in 0.0 W/m2
07:17 -1.5 °F -8.1 °F 30.65 in WNW 3.5 mph 4.0 mph 73% 0.00 in 0.0 W/m2
07:22 -1.6 °F -8.2 °F 30.65 in WNW 8.1 mph 8.1 mph 73% 0.00 in 9.0 W/m2
07:23 -1.6 °F -8.2 °F 30.66 in West 5.8 mph 5.8 mph 73% 0.00 in 11.0 W/m2
07:28 -1.6 °F -8.2 °F 30.66 in NW 7.0 mph 7.0 mph 73% 0.00 in 16.0 W/m2
07:29 -1.6 °F -8.2 °F 30.66 in WNW 8.0 mph 8.0 mph 73% 0.00 in 16.0 W/m2
07:34 -1.6 °F -8.2 °F 30.66 in WNW 6.0 mph 6.0 mph 73% 0.00 in 23.0 W/m2
07:39 -1.7 °F -8.3 °F 30.66 in WNW 5.8 mph 5.8 mph 73% 0.00 in 25.0 W/m2
07:44 -1.9 °F -8.4 °F 30.65 in WNW 5.8 mph 5.8 mph 73% 0.00 in 23.0 W/m2
07:47 -2.0 °F -8.5 °F 30.66 in WNW 5.8 mph 5.8 mph 73% 0.00 in 23.0 W/m2
07:50 -2.1 °F -8.6 °F 30.66 in WNW 4.6 mph 4.6 mph 73% 0.00 in 30.0 W/m2
07:55 -2.2 °F -8.7 °F 30.65 in NW 3.5 mph 3.5 mph 73% 0.00 in 33.0 W/m2
07:57 -2.2 °F -8.7 °F 30.65 in WNW 3.0 mph 3.0 mph 73% 0.00 in 35.0 W/m2
08:02 -2.2 °F -8.7 °F 30.65 in NW 4.6 mph 4.6 mph 73% 0.00 in 42.0 W/m2
08:06 -2.2 °F -8.5 °F 30.66 in WNW 6.0 mph 6.0 mph 74% 0.00 in 54.0 W/m2
08:08 -2.2 °F -8.5 °F 30.66 in WNW 3.5 mph 3.5 mph 74% 0.00 in 58.0 W/m2
08:12 -2.1 °F -8.6 °F 30.66 in NW 4.0 mph 4.0 mph 73% 0.00 in 104.0 W/m2
08:16 -1.9 °F -8.4 °F 30.66 in WNW 8.0 mph 8.0 mph 73% 0.00 in 91.0 W/m2
08:17 -1.9 °F -8.4 °F 30.66 in WNW 8.1 mph 8.1 mph 73% 0.00 in 109.0 W/m2
08:21 -1.8 °F -8.3 °F 30.66 in WNW 6.9 mph 6.9 mph 73% 0.00 in 120.0 W/m2
08:23 -1.7 °F -8.3 °F 30.66 in WNW 6.9 mph 6.9 mph 73% 0.00 in 151.0 W/m2
08:28 -1.5 °F -8.3 °F 30.66 in WNW 6.0 mph 6.0 mph 72% 0.00 in 111.0 W/m2
08:29 -1.5 °F -8.3 °F 30.67 in WNW 8.1 mph 8.1 mph 72% 0.00 in 98.0 W/m2
08:34 -1.5 °F -8.3 °F 30.67 in WNW 9.2 mph 9.2 mph 72% 0.00 in 76.0 W/m2
08:35 -1.4 °F -8.5 °F 30.67 in WNW 9.2 mph 9.2 mph 71% 0.00 in 72.0 W/m2
08:40 -1.6 °F -8.7 °F 30.67 in NW 6.9 mph 6.9 mph 71% 0.00 in 63.0 W/m2
08:42 -1.6 °F -8.7 °F 30.67 in WNW 8.1 mph 8.1 mph 71% 0.00 in 62.0 W/m2
08:47 -1.6 °F -8.7 °F 30.67 in NW 5.8 mph 5.8 mph 71% 0.00 in 72.0 W/m2
08:52 -1.7 °F -8.8 °F 30.67 in WNW 6.9 mph 6.9 mph 71% 0.00 in 72.0 W/m2
08:54 -1.6 °F -8.7 °F 30.67 in WNW 6.9 mph 6.9 mph 71% 0.00 in 95.0 W/m2
08:59 -1.5 °F -8.6 °F 30.67 in WNW 5.8 mph 5.8 mph 71% 0.00 in 118.0 W/m2
09:00 -1.5 °F -8.6 °F 30.67 in WNW 7.0 mph 7.0 mph 71% 0.00 in 118.0 W/m2
09:05 -1.3 °F -8.7 °F 30.68 in WNW 4.6 mph 4.6 mph 70% 0.00 in 148.0 W/m2
09:07 -1.2 °F -8.6 °F 30.67 in WNW 6.9 mph 6.9 mph 70% 0.00 in 220.0 W/m2
09:12 -0.8 °F -8.2 °F 30.68 in WNW 5.8 mph 5.8 mph 70% 0.00 in 185.0 W/m2
09:17 -0.6 °F -8.3 °F 30.68 in NW 11.5 mph 11.5 mph 69% 0.00 in 206.0 W/m2
09:18 -0.6 °F -8.3 °F 30.68 in NW 8.1 mph 8.1 mph 69% 0.00 in 206.0 W/m2
09:19 -0.5 °F -8.2 °F 30.68 in WNW 4.0 mph 4.0 mph 69% 0.00 in 206.0 W/m2
09:23 -0.2 °F -8.0 °F 30.68 in West 9.2 mph 9.2 mph 69% 0.00 in 281.0 W/m2
09:27 0.0 °F -8.1 °F 30.68 in West 11.5 mph 11.5 mph 68% 0.00 in 316.0 W/m2
09:32 0.3 °F -7.8 °F 30.68 in WNW 9.2 mph 9.2 mph 68% 0.00 in 346.0 W/m2
09:34 0.4 °F -7.7 °F 30.68 in West 6.9 mph 6.9 mph 68% 0.00 in 369.0 W/m2
09:37 0.6 °F -7.5 °F 30.68 in WSW 5.8 mph 5.8 mph 68% 0.00 in 401.0 W/m2
09:42 0.9 °F -7.5 °F 30.68 in West 7.0 mph 7.0 mph 67% 0.00 in 262.0 W/m2
09:44 0.9 °F -7.5 °F 30.69 in West 4.6 mph 4.6 mph 67% 0.00 in 253.0 W/m2
09:48 0.8 °F -7.6 °F 30.69 in West 5.8 mph 5.8 mph 67% 0.00 in 174.0 W/m2
09:51 0.8 °F -7.6 °F 30.69 in West 4.6 mph 4.6 mph 67% 0.00 in 172.0 W/m2
09:53 0.8 °F -7.6 °F 30.69 in West 8.0 mph 8.0 mph 67% 0.00 in 165.0 W/m2
09:55 0.9 °F -7.5 °F 30.69 in West 9.2 mph 9.2 mph 67% 0.00 in 156.0 W/m2
09:56 0.9 °F -7.5 °F 30.69 in WNW 8.1 mph 8.1 mph 67% 0.00 in 153.0 W/m2
10:01 0.9 °F -8.1 °F 30.70 in WNW 9.0 mph 9.0 mph 65% 0.00 in 165.0 W/m2
10:06 1.0 °F -8.0 °F 30.70 in West 6.9 mph 6.9 mph 65% 0.00 in 171.0 W/m2
10:08 1.0 °F -8.0 °F 30.70 in WNW 8.1 mph 8.1 mph 65% 0.00 in 171.0 W/m2
10:13 1.3 °F -7.7 °F 30.70 in WNW 5.8 mph 5.8 mph 65% 0.00 in 313.0 W/m2
10:18 1.8 °F -7.3 °F 30.70 in West 9.2 mph 9.2 mph 65% 0.00 in 374.0 W/m2
10:19 1.8 °F -7.3 °F 30.71 in West 4.6 mph 4.6 mph 65% 0.00 in 387.0 W/m2
10:24 2.0 °F -7.1 °F 30.71 in West 8.1 mph 8.1 mph 65% 0.00 in 345.0 W/m2
10:25 2.1 °F -7.0 °F 30.71 in WSW 5.8 mph 5.8 mph 65% 0.00 in 346.0 W/m2
10:30 2.2 °F -6.9 °F 30.71 in WSW 9.0 mph 9.0 mph 65% 0.00 in 394.0 W/m2
10:31 2.3 °F -6.8 °F 30.71 in West 9.2 mph 9.2 mph 65% 0.00 in 394.0 W/m2
10:32 2.4 °F -6.7 °F 30.71 in WNW 6.9 mph 6.9 mph 65% 0.00 in 339.0 W/m2
10:36 2.5 °F -6.6 °F 30.71 in WSW 8.0 mph 8.0 mph 65% 0.00 in 329.0 W/m2
10:38 2.5 °F -6.6 °F 30.70 in West 7.0 mph 7.0 mph 65% 0.00 in 327.0 W/m2
10:41 2.5 °F -6.6 °F 30.70 in West 6.0 mph 6.0 mph 65% 0.00 in 309.0 W/m2
10:43 2.5 °F -6.6 °F 30.70 in West 8.1 mph 8.1 mph 65% 0.00 in 329.0 W/m2
10:48 2.6 °F -6.8 °F 30.69 in WSW 8.1 mph 8.1 mph 64% 0.00 in 308.0 W/m2
10:49 2.5 °F -6.9 °F 30.69 in West 6.9 mph 6.9 mph 64% 0.00 in 350.0 W/m2
10:51 2.6 °F -6.5 °F 30.69 in WSW 6.9 mph 6.9 mph 65% 0.00 in 359.0 W/m2
10:56 2.8 °F -6.3 °F 30.69 in WSW 8.1 mph 8.1 mph 65% 0.00 in 445.0 W/m2
11:06 2.9 °F -6.5 °F 30.68 in WNW 6.9 mph 6.9 mph 64% 0.00 in 251.0 W/m2
11:07 2.9 °F -6.5 °F 30.68 in West 9.2 mph 9.2 mph 64% 0.00 in 232.0 W/m2
11:12 2.8 °F -7.0 °F 30.68 in West 6.9 mph 6.9 mph 63% 0.00 in 241.0 W/m2
11:17 2.8 °F -7.0 °F 30.68 in West 7.0 mph 7.0 mph 63% 0.00 in 257.0 W/m2
11:18 2.8 °F -7.0 °F 30.67 in West 6.9 mph 6.9 mph 63% 0.00 in 287.0 W/m2
11:21 2.9 °F -6.9 °F 30.67 in West 8.1 mph 8.1 mph 63% 0.00 in 248.0 W/m2
11:26 3.0 °F -6.8 °F 30.67 in WSW 5.8 mph 5.8 mph 63% 0.00 in 236.0 W/m2
11:27 3.0 °F -6.8 °F 30.67 in West 5.8 mph 5.8 mph 63% 0.00 in 236.0 W/m2
11:32 3.2 °F -6.6 °F 30.67 in WSW 10.4 mph 10.4 mph 63% 0.00 in 401.0 W/m2
11:37 3.5 °F -6.3 °F 30.66 in West 8.1 mph 8.1 mph 63% 0.00 in 287.0 W/m2
11:39 3.6 °F -6.2 °F 30.67 in West 8.1 mph 8.1 mph 63% 0.00 in 329.0 W/m2
11:44 3.6 °F -6.2 °F 30.67 in West 6.0 mph 6.0 mph 63% 0.00 in 411.0 W/m2
11:46 3.6 °F -6.2 °F 30.67 in West 5.8 mph 6.0 mph 63% 0.00 in 411.0 W/m2
11:48 3.7 °F -6.1 °F 30.66 in West 8.1 mph 8.1 mph 63% 0.00 in 438.0 W/m2
11:53 3.6 °F -6.2 °F 30.66 in WNW 5.8 mph 5.8 mph 63% 0.00 in 438.0 W/m2
11:55 3.8 °F -6.0 °F 30.66 in West 3.5 mph 3.5 mph 63% 0.00 in 475.0 W/m2
11:56 3.8 °F -5.7 °F 30.66 in West 8.1 mph 8.1 mph 64% 0.00 in 381.0 W/m2
12:02 3.9 °F -5.9 °F 30.66 in West 9.2 mph 9.2 mph 63% 0.00 in 383.0 W/m2
12:03 3.8 °F -6.0 °F 30.66 in WSW 4.6 mph 4.6 mph 63% 0.00 in 376.0 W/m2
12:04 3.8 °F -6.0 °F 30.66 in WSW 6.9 mph 6.9 mph 63% 0.00 in 471.0 W/m2
12:09 4.1 °F -5.7 °F 30.66 in WSW 11.5 mph 11.5 mph 63% 0.00 in 499.0 W/m2
12:10 4.2 °F -5.6 °F 30.66 in West 9.2 mph 9.2 mph 63% 0.00 in 494.0 W/m2
12:15 4.3 °F -5.5 °F 30.66 in West 11.5 mph 11.5 mph 63% 0.00 in 478.0 W/m2
12:16 4.3 °F -5.5 °F 30.66 in West 11.5 mph 11.5 mph 63% 0.00 in 478.0 W/m2
12:21 4.8 °F -4.7 °F 30.66 in WSW 9.2 mph 9.2 mph 64% 0.00 in 455.0 W/m2
12:22 4.8 °F -5.1 °F 30.66 in WNW 9.2 mph 9.2 mph 63% 0.00 in 455.0 W/m2
12:27 4.8 °F -5.4 °F 30.66 in WSW 8.1 mph 8.1 mph 62% 0.00 in 454.0 W/m2
12:29 4.9 °F -5.0 °F 30.66 in West 4.0 mph 4.0 mph 63% 0.00 in 452.0 W/m2
12:31 4.9 °F -5.0 °F 30.66 in West 5.0 mph 5.0 mph 63% 0.00 in 450.0 W/m2
12:34 4.9 °F -5.0 °F 30.65 in West 6.9 mph 6.9 mph 63% 0.00 in 431.0 W/m2
12:37 4.9 °F -5.0 °F 30.65 in WNW 7.0 mph 7.0 mph 63% 0.00 in 441.0 W/m2
12:40 4.9 °F -5.6 °F 30.65 in West 8.1 mph 8.1 mph 61% 0.00 in 434.0 W/m2
12:45 4.9 °F -5.3 °F 30.65 in West 8.1 mph 8.1 mph 62% 0.00 in 429.0 W/m2
12:48 5.0 °F -5.2 °F 30.65 in WNW 6.0 mph 6.0 mph 62% 0.00 in 403.0 W/m2
12:52 5.1 °F -5.1 °F 30.65 in NW 4.6 mph 4.6 mph 62% 0.00 in 406.0 W/m2
12:57 5.2 °F -5.3 °F 30.65 in WNW 10.4 mph 10.4 mph 61% 0.00 in 415.0 W/m2
12:58 5.3 °F -5.2 °F 30.65 in West 10.4 mph 10.4 mph 61% 0.00 in 417.0 W/m2
13:01 5.2 °F -5.7 °F 30.65 in WNW 11.5 mph 11.5 mph 60% 0.00 in 415.0 W/m2
13:04 5.2 °F -5.7 °F 30.65 in WNW 6.9 mph 6.9 mph 60% 0.00 in 387.0 W/m2
13:07 5.2 °F -6.0 °F 30.64 in WNW 10.4 mph 10.4 mph 59% 0.00 in 424.0 W/m2
13:09 5.2 °F -6.0 °F 30.64 in WNW 6.9 mph 6.9 mph 59% 0.00 in 434.0 W/m2
13:13 5.3 °F -5.6 °F 30.64 in NW 11.0 mph 11.0 mph 60% 0.00 in 445.0 W/m2
13:14 5.4 °F -5.5 °F 30.64 in West 11.5 mph 11.5 mph 60% 0.00 in 466.0 W/m2
13:19 5.4 °F -5.8 °F 30.64 in WNW 8.1 mph 8.1 mph 59% 0.00 in 388.0 W/m2
13:20 5.4 °F -5.8 °F 30.64 in West 6.9 mph 6.9 mph 59% 0.00 in 441.0 W/m2
13:24 5.5 °F -5.7 °F 30.64 in WSW 1.2 mph 1.2 mph 59% 0.00 in 413.0 W/m2
13:28 5.6 °F -5.7 °F 30.64 in WNW 6.9 mph 6.9 mph 59% 0.00 in 403.0 W/m2
13:30 5.7 °F -5.2 °F 30.65 in WSW 10.4 mph 10.4 mph 60% 0.00 in 338.0 W/m2
13:35 5.8 °F -5.1 °F 30.65 in WNW 4.6 mph 4.6 mph 60% 0.00 in 364.0 W/m2
13:39 5.8 °F -5.1 °F 30.64 in WNW 9.2 mph 9.2 mph 60% 0.00 in 341.0 W/m2
13:40 5.9 °F -5.0 °F 30.64 in WNW 5.8 mph 5.8 mph 60% 0.00 in 304.0 W/m2
13:45 6.0 °F -4.6 °F 30.64 in WNW 5.8 mph 5.8 mph 61% 0.00 in 352.0 W/m2
13:47 6.0 °F -4.6 °F 30.64 in WNW 3.5 mph 3.5 mph 61% 0.00 in 287.0 W/m2
13:52 6.0 °F -4.9 °F 30.64 in WNW 10.4 mph 10.4 mph 60% 0.00 in 308.0 W/m2
13:53 5.9 °F -5.0 °F 30.64 in WNW 9.2 mph 9.2 mph 60% 0.00 in 285.0 W/m2
13:58 5.9 °F -5.0 °F 30.64 in WNW 6.0 mph 6.0 mph 60% 0.00 in 339.0 W/m2
13:59 5.9 °F -5.0 °F 30.64 in West 8.1 mph 8.1 mph 60% 0.00 in 322.0 W/m2
14:03 5.9 °F -5.0 °F 30.64 in West 9.2 mph 9.2 mph 60% 0.00 in 265.0 W/m2
14:08 6.0 °F -4.9 °F 30.64 in West 8.1 mph 8.1 mph 60% 0.00 in 313.0 W/m2
14:13 6.0 °F -4.6 °F 30.64 in WNW 8.1 mph 8.1 mph 61% 0.00 in 301.0 W/m2
14:16 6.0 °F -4.6 °F 30.64 in West 8.1 mph 8.1 mph 61% 0.00 in 265.0 W/m2
14:19 6.0 °F -4.6 °F 30.64 in West 4.6 mph 4.6 mph 61% 0.00 in 234.0 W/m2
14:21 6.1 °F -4.5 °F 30.65 in West 1.2 mph 1.2 mph 61% 0.00 in 178.0 W/m2
14:25 6.2 °F -4.4 °F 30.65 in WSW 6.9 mph 6.9 mph 61% 0.00 in 302.0 W/m2
14:26 6.2 °F -4.4 °F 30.65 in West 9.2 mph 9.2 mph 61% 0.00 in 264.0 W/m2
14:29 6.0 °F -5.3 °F 30.65 in West 3.5 mph 3.5 mph 59% 0.00 in 218.0 W/m2
14:32 6.0 °F -4.9 °F 30.64 in West 5.8 mph 5.8 mph 60% 0.00 in 162.0 W/m2
14:36 5.9 °F -5.4 °F 30.64 in Calm     59% 0.00 in 149.0 W/m2
14:37 5.9 °F -5.4 °F 30.64 in West 6.0 mph 6.0 mph 59% 0.00 in 200.0 W/m2
14:42 6.1 °F -5.2 °F 30.65 in NW 7.0 mph 7.0 mph 59% 0.00 in 236.0 W/m2
14:43 6.1 °F -5.2 °F 30.65 in NW 8.1 mph 8.1 mph 59% 0.00 in 236.0 W/m2
14:44 6.2 °F -5.1 °F 30.64 in NW 8.1 mph 8.1 mph 59% 0.00 in 227.0 W/m2
14:48 6.3 °F -5.0 °F 30.64 in West 3.5 mph 3.5 mph 59% 0.00 in 269.0 W/m2
14:53 6.6 °F -4.7 °F 30.65 in West 8.0 mph 8.0 mph 59% 0.00 in 246.0 W/m2
14:58 6.4 °F -5.3 °F 30.64 in NW 8.1 mph 8.1 mph 58% 0.00 in 234.0 W/m2
15:03 6.4 °F -4.9 °F 30.64 in WSW 4.6 mph 4.6 mph 59% 0.00 in 160.0 W/m2
15:04 6.4 °F -4.9 °F 30.64 in West 3.5 mph 3.5 mph 59% 0.00 in 160.0 W/m2
15:09 6.3 °F -4.6 °F 30.64 in WNW 3.5 mph 3.5 mph 60% 0.00 in 207.0 W/m2
15:14 6.4 °F -4.5 °F 30.64 in WNW 6.9 mph 6.9 mph 60% 0.00 in 181.0 W/m2
15:15 6.4 °F -4.5 °F 30.64 in WNW 5.8 mph 5.8 mph 60% 0.00 in 179.0 W/m2
15:17 6.4 °F -4.2 °F 30.65 in WNW 8.1 mph 8.1 mph 61% 0.00 in 139.0 W/m2
15:20 6.2 °F -4.4 °F 30.64 in West 6.9 mph 6.9 mph 61% 0.00 in 100.0 W/m2
15:24 5.9 °F -4.7 °F 30.65 in WNW 5.8 mph 5.8 mph 61% 0.00 in 81.0 W/m2
15:27 5.7 °F -4.9 °F 30.65 in NW 5.8 mph 5.8 mph 61% 0.00 in 72.0 W/m2
15:32 5.5 °F -4.4 °F 30.64 in West 4.6 mph 4.6 mph 63% 0.00 in 65.0 W/m2
15:34 5.5 °F -4.4 °F 30.64 in West 6.9 mph 6.9 mph 63% 0.00 in 67.0 W/m2
15:38 5.4 °F -4.5 °F 30.64 in WNW 5.8 mph 5.8 mph 63% 0.00 in 60.0 W/m2
15:40 5.4 °F -4.5 °F 30.64 in WNW 8.1 mph 8.1 mph 63% 0.00 in 62.0 W/m2
15:45 5.3 °F -4.2 °F 30.64 in WNW 4.0 mph 4.0 mph 64% 0.00 in 49.0 W/m2
15:46 5.3 °F -4.2 °F 30.64 in WNW 4.6 mph 4.6 mph 64% 0.00 in 46.0 W/m2
15:51 5.2 °F -4.3 °F 30.64 in West 3.5 mph 3.5 mph 64% 0.00 in 25.0 W/m2
15:52 5.1 °F -4.4 °F 30.64 in West 3.5 mph 3.5 mph 64% 0.00 in 21.0 W/m2
15:57 5.0 °F -4.2 °F 30.64 in West 7.0 mph 7.0 mph 65% 0.00 in 19.0 W/m2
15:59 5.0 °F -4.2 °F 30.64 in WNW 6.9 mph 6.9 mph 65% 0.00 in 18.0 W/m2
16:02 4.9 °F -4.0 °F 30.64 in WNW 5.8 mph 5.8 mph 66% 0.00 in 16.0 W/m2
16:05 4.8 °F -4.1 °F 30.65 in West 3.5 mph 3.5 mph 66% 0.00 in 14.0 W/m2
16:10 4.7 °F -4.2 °F 30.65 in WNW 6.9 mph 6.9 mph 66% 0.00 in 12.0 W/m2
16:12 4.6 °F -4.3 °F 30.65 in WNW 4.0 mph 4.0 mph 66% 0.00 in 12.0 W/m2
16:15 4.5 °F -4.4 °F 30.65 in West 6.0 mph 6.0 mph 66% 0.00 in 11.0 W/m2
16:19 4.4 °F -4.5 °F 30.65 in WNW 6.9 mph 6.9 mph 66% 0.00 in 9.0 W/m2
16:22 4.4 °F -4.5 °F 30.65 in WNW 5.8 mph 5.8 mph 66% 0.00 in 9.0 W/m2
16:26 4.3 °F -4.6 °F 30.65 in WNW 4.6 mph 4.6 mph 66% 0.00 in 5.0 W/m2
16:30 4.2 °F -4.7 °F 30.65 in WNW 4.6 mph 4.6 mph 66% 0.00 in 0.0 W/m2
16:33 4.1 °F -4.8 °F 30.65 in West 3.5 mph 3.5 mph 66% 0.00 in 0.0 W/m2
16:37 4.1 °F -4.8 °F 30.65 in WNW 3.5 mph 3.5 mph 66% 0.00 in 0.0 W/m2
16:42 4.0 °F -4.8 °F 30.66 in West 5.8 mph 5.8 mph 66% 0.00 in 0.0 W/m2
16:43 4.0 °F -4.8 °F 30.66 in West 4.6 mph 4.6 mph 66% 0.00 in 0.0 W/m2
16:48 3.9 °F -4.9 °F 30.66 in WNW 2.3 mph 2.3 mph 66% 0.00 in 0.0 W/m2
16:53 3.8 °F -5.0 °F 30.66 in West 6.0 mph 6.0 mph 66% 0.00 in 0.0 W/m2
16:54 3.8 °F -5.0 °F 30.66 in West 5.8 mph 5.8 mph 66% 0.00 in 0.0 W/m2
16:59 3.6 °F -4.9 °F 30.66 in West 5.0 mph 5.0 mph 67% 0.00 in 0.0 W/m2
17:02 3.5 °F -4.7 °F 30.66 in West 2.3 mph 2.3 mph 68% 0.00 in 0.0 W/m2
17:03 3.5 °F -4.7 °F 30.66 in West 3.5 mph 3.5 mph 68% 0.00 in 0.0 W/m2
17:08 3.3 °F -4.9 °F 30.66 in West 3.5 mph 3.5 mph 68% 0.00 in 0.0 W/m2
17:10 3.2 °F -4.7 °F 30.66 in West 3.5 mph 3.5 mph 69% 0.00 in 0.0 W/m2
17:13 3.1 °F -4.8 °F 30.66 in West 3.5 mph 3.5 mph 69% 0.00 in 0.0 W/m2
17:18 3.0 °F -4.9 °F 30.67 in West 5.8 mph 5.8 mph 69% 0.00 in 0.0 W/m2
17:21 2.9 °F -5.0 °F 30.67 in West 3.5 mph 3.5 mph 69% 0.00 in 0.0 W/m2
17:26 2.8 °F -4.8 °F 30.67 in West 1.2 mph 1.2 mph 70% 0.00 in 0.0 W/m2
17:31 2.6 °F -5.0 °F 30.66 in West 2.3 mph 2.3 mph 70% 0.00 in 0.0 W/m2
17:33 2.6 °F -5.0 °F 30.66 in WNW 4.6 mph 4.6 mph 70% 0.00 in 0.0 W/m2
17:37 2.4 °F -5.2 °F 30.66 in West 5.8 mph 5.8 mph 70% 0.00 in 0.0 W/m2
17:40 2.4 °F -5.2 °F 30.66 in WNW 4.6 mph 4.6 mph 70% 0.00 in 0.0 W/m2
17:45 2.3 °F -5.3 °F 30.66 in WNW 4.6 mph 4.6 mph 70% 0.00 in 0.0 W/m2
17:46 2.3 °F -5.3 °F 30.67 in WNW 3.5 mph 3.5 mph 70% 0.00 in 0.0 W/m2
17:51 2.2 °F -5.4 °F 30.67 in WNW 4.0 mph 4.0 mph 70% 0.00 in 0.0 W/m2
17:52 2.1 °F -5.4 °F 30.67 in WNW 3.5 mph 3.5 mph 70% 0.00 in 0.0 W/m2
17:54 2.0 °F -5.5 °F 30.67 in WNW 3.5 mph 3.5 mph 70% 0.00 in 0.0 W/m2
17:57 1.9 °F -5.6 °F 30.67 in WNW 6.9 mph 6.9 mph 70% 0.00 in 0.0 W/m2
18:02 1.9 °F -5.6 °F 30.67 in WNW 3.5 mph 3.5 mph 70% 0.00 in 0.0 W/m2
18:07 1.8 °F -5.7 °F 30.67 in West 4.6 mph 4.6 mph 70% 0.00 in 0.0 W/m2
18:08 1.8 °F -5.7 °F 30.67 in WNW 6.0 mph 6.0 mph 70% 0.00 in 0.0 W/m2
18:13 1.7 °F -5.8 °F 30.67 in WNW 5.8 mph 5.8 mph 70% 0.00 in 0.0 W/m2
18:16 1.7 °F -5.8 °F 30.67 in WNW 5.8 mph 5.8 mph 70% 0.00 in 0.0 W/m2
18:18 1.6 °F -5.9 °F 30.67 in West 3.5 mph 3.5 mph 70% 0.00 in 0.0 W/m2
18:23 1.6 °F -5.9 °F 30.68 in West 3.5 mph 3.5 mph 70% 0.00 in 0.0 W/m2
18:25 1.6 °F -5.9 °F 30.67 in West 3.5 mph 3.5 mph 70% 0.00 in 0.0 W/m2
18:29 1.7 °F -5.8 °F 30.68 in WNW 3.5 mph 3.5 mph 70% 0.00 in 0.0 W/m2
18:30 1.6 °F -5.9 °F 30.68 in West 2.3 mph 2.3 mph 70% 0.00 in 0.0 W/m2
18:35 1.6 °F -5.9 °F 30.68 in West 3.5 mph 3.5 mph 70% 0.00 in 0.0 W/m2
18:36 1.6 °F -5.9 °F 30.68 in West 3.5 mph 3.5 mph 70% 0.00 in 0.0 W/m2
18:41 1.5 °F -6.0 °F 30.68 in West 1.2 mph 1.2 mph 70% 0.00 in 0.0 W/m2
18:46 1.4 °F -5.8 °F 30.68 in WNW 3.5 mph 3.5 mph 71% 0.00 in 0.0 W/m2
18:47 1.4 °F -5.8 °F 30.68 in WNW 3.5 mph 3.5 mph 71% 0.00 in 0.0 W/m2
18:51 1.3 °F -5.9 °F 30.68 in WNW 3.5 mph 3.5 mph 71% 0.00 in 0.0 W/m2
18:53 1.3 °F -5.9 °F 30.68 in WNW 6.0 mph 6.0 mph 71% 0.00 in 0.0 W/m2
18:58 1.3 °F -5.9 °F 30.68 in WNW 4.6 mph 4.6 mph 71% 0.00 in 0.0 W/m2
18:59 1.3 °F -5.9 °F 30.68 in WNW 4.6 mph 4.6 mph 71% 0.00 in 0.0 W/m2
19:01 1.3 °F -5.9 °F 30.68 in WNW 3.5 mph 3.5 mph 71% 0.00 in 0.0 W/m2
19:05 1.3 °F -5.9 °F 30.68 in WSW 5.0 mph 5.0 mph 71% 0.00 in 0.0 W/m2
19:07 1.3 °F -5.9 °F 30.68 in West 4.6 mph 4.6 mph 71% 0.00 in 0.0 W/m2
19:10 1.3 °F -5.9 °F 30.68 in West 6.9 mph 6.9 mph 71% 0.00 in 0.0 W/m2
19:15 1.3 °F -5.9 °F 30.69 in WNW 3.5 mph 3.5 mph 71% 0.00 in 0.0 W/m2
19:16 1.2 °F -6.0 °F 30.69 in West 3.5 mph 3.5 mph 71% 0.00 in 0.0 W/m2
19:21 1.1 °F -6.1 °F 30.69 in WNW 6.9 mph 6.9 mph 71% 0.00 in 0.0 W/m2
19:22 1.1 °F -6.1 °F 30.69 in WNW 6.9 mph 6.9 mph 71% 0.00 in 0.0 W/m2
19:27 1.0 °F -6.2 °F 30.69 in WNW 5.8 mph 5.8 mph 71% 0.00 in 0.0 W/m2
19:28 1.0 °F -6.2 °F 30.68 in WNW 4.6 mph 4.6 mph 71% 0.00 in 0.0 W/m2
19:33 0.9 °F -6.0 °F 30.69 in WNW 6.9 mph 6.9 mph 72% 0.00 in 0.0 W/m2
19:34 0.9 °F -6.0 °F 30.69 in WNW 3.5 mph 3.5 mph 72% 0.00 in 0.0 W/m2
19:35 0.8 °F -6.1 °F 30.69 in WNW 3.5 mph 3.5 mph 72% 0.00 in 0.0 W/m2
19:40 0.8 °F -6.1 °F 30.69 in WNW 3.5 mph 3.5 mph 72% 0.00 in 0.0 W/m2
19:45 0.6 °F -6.3 °F 30.69 in WNW 4.0 mph 4.0 mph 72% 0.00 in 0.0 W/m2
19:46 0.6 °F -6.3 °F 30.69 in WNW 4.6 mph 4.6 mph 72% 0.00 in 0.0 W/m2
19:50 0.5 °F -6.4 °F 30.69 in West 4.6 mph 4.6 mph 72% 0.00 in 0.0 W/m2
19:52 0.5 °F -6.4 °F 30.69 in WNW 6.9 mph 6.9 mph 72% 0.00 in 0.0 W/m2
19:55 0.5 °F -6.1 °F 30.69 in WNW 6.9 mph 6.9 mph 73% 0.00 in 0.0 W/m2
19:57 0.5 °F -6.1 °F 30.69 in West 4.6 mph 4.6 mph 73% 0.00 in 0.0 W/m2
20:02 0.5 °F -6.1 °F 30.69 in West 4.6 mph 4.6 mph 73% 0.00 in 0.0 W/m2
20:04 0.5 °F -6.1 °F 30.69 in West 4.6 mph 4.6 mph 73% 0.00 in 0.0 W/m2
20:09 0.5 °F -6.1 °F 30.70 in West 3.5 mph 3.5 mph 73% 0.00 in 0.0 W/m2
20:11 0.4 °F -6.2 °F 30.70 in WNW 5.8 mph 5.8 mph 73% 0.00 in 0.0 W/m2
20:15 0.4 °F -6.2 °F 30.70 in WNW 5.8 mph 5.8 mph 73% 0.00 in 0.0 W/m2
20:16 0.4 °F -6.2 °F 30.70 in WNW 4.6 mph 4.6 mph 73% 0.00 in 0.0 W/m2
20:20 0.3 °F -6.3 °F 30.70 in WNW 5.8 mph 5.8 mph 73% 0.00 in 0.0 W/m2
20:25 0.3 °F -6.3 °F 30.70 in West 5.8 mph 5.8 mph 73% 0.00 in 0.0 W/m2
20:26 0.3 °F -6.3 °F 30.70 in WNW 3.5 mph 3.5 mph 73% 0.00 in 0.0 W/m2
20:31 0.3 °F -6.3 °F 30.70 in WNW 8.0 mph 8.0 mph 73% 0.00 in 0.0 W/m2
20:36 0.3 °F -6.3 °F 30.70 in WNW 6.0 mph 6.0 mph 73% 0.00 in 0.0 W/m2
20:41 0.2 °F -6.4 °F 30.70 in WNW 8.1 mph 8.1 mph 73% 0.00 in 0.0 W/m2
20:46 0.2 °F -6.4 °F 30.70 in West 4.6 mph 4.6 mph 73% 0.00 in 0.0 W/m2
20:51 0.1 °F -6.5 °F 30.70 in WNW 5.8 mph 5.8 mph 73% 0.00 in 0.0 W/m2
20:52 0.1 °F -6.5 °F 30.70 in WNW 5.8 mph 5.8 mph 73% 0.00 in 0.0 W/m2
20:53 0.1 °F -6.5 °F 30.70 in WNW 5.8 mph 5.8 mph 73% 0.00 in 0.0 W/m2
20:57 0.0 °F -6.6 °F 30.70 in WNW 3.5 mph 3.5 mph 73% 0.00 in 0.0 W/m2
21:00 -0.1 °F -6.7 °F 30.70 in WNW 4.0 mph 4.0 mph 73% 0.00 in 0.0 W/m2
21:03 -0.2 °F -6.8 °F 30.70 in WNW 5.8 mph 5.8 mph 73% 0.00 in 0.0 W/m2
21:07 -0.3 °F -6.9 °F 30.70 in WNW 9.2 mph 9.2 mph 73% 0.00 in 0.0 W/m2
21:09 -0.3 °F -6.9 °F 30.70 in WNW 9.2 mph 9.2 mph 73% 0.00 in 0.0 W/m2
21:14 -0.3 °F -6.9 °F 30.70 in WNW 8.1 mph 8.1 mph 73% 0.00 in 0.0 W/m2
21:16 -0.2 °F -6.8 °F 30.70 in WNW 10.4 mph 10.4 mph 73% 0.00 in 0.0 W/m2
21:21 -0.1 °F -6.7 °F 30.70 in WNW 8.1 mph 8.1 mph 73% 0.00 in 0.0 W/m2
21:22 -0.1 °F -6.7 °F 30.71 in WNW 5.8 mph 5.8 mph 73% 0.00 in 0.0 W/m2
21:27 -0.1 °F -6.7 °F 30.71 in WNW 10.4 mph 10.4 mph 73% 0.00 in 0.0 W/m2
21:28 -0.1 °F -6.7 °F 30.71 in WNW 9.2 mph 9.2 mph 73% 0.00 in 0.0 W/m2
21:33 0.0 °F -6.9 °F 30.71 in West 10.4 mph 10.4 mph 72% 0.00 in 0.0 W/m2
21:34 0.0 °F -6.9 °F 30.71 in WNW 10.4 mph 10.4 mph 72% 0.00 in 0.0 W/m2
21:35 0.1 °F -6.8 °F 30.71 in WNW 9.2 mph 9.2 mph 72% 0.00 in 0.0 W/m2
21:40 0.2 °F -6.7 °F 30.72 in West 10.4 mph 10.4 mph 72% 0.00 in 0.0 W/m2
21:41 0.2 °F -6.7 °F 30.71 in NW 10.4 mph 10.4 mph 72% 0.00 in 0.0 W/m2
21:46 0.2 °F -6.7 °F 30.72 in West 11.5 mph 11.5 mph 72% 0.00 in 0.0 W/m2
21:47 0.3 °F -6.6 °F 30.72 in West 11.5 mph 11.5 mph 72% 0.00 in 0.0 W/m2
21:52 0.3 °F -6.6 °F 30.72 in WNW 10.4 mph 10.4 mph 72% 0.00 in 0.0 W/m2
21:53 0.3 °F -6.6 °F 30.72 in WNW 10.4 mph 10.4 mph 72% 0.00 in 0.0 W/m2
21:54 0.3 °F -6.6 °F 30.72 in WNW 10.4 mph 10.4 mph 72% 0.00 in 0.0 W/m2
21:59 0.2 °F -6.7 °F 30.72 in WNW 10.4 mph 10.4 mph 72% 0.00 in 0.0 W/m2
22:02 0.3 °F -6.6 °F 30.72 in WNW 8.1 mph 8.1 mph 72% 0.00 in 0.0 W/m2
22:04 0.3 °F -6.6 °F 30.72 in West 8.1 mph 8.1 mph 72% 0.00 in 0.0 W/m2
22:09 0.4 °F -6.5 °F 30.72 in WNW 8.1 mph 8.1 mph 72% 0.00 in 0.0 W/m2
22:14 0.4 °F -6.5 °F 30.72 in WNW 6.9 mph 6.9 mph 72% 0.00 in 0.0 W/m2
22:16 0.4 °F -6.5 °F 30.72 in WNW 5.8 mph 5.8 mph 72% 0.00 in 0.0 W/m2
22:19 0.4 °F -6.5 °F 30.73 in WNW 2.3 mph 2.3 mph 72% 0.00 in 0.0 W/m2
22:24 0.2 °F -6.7 °F 30.73 in West 7.0 mph 7.0 mph 72% 0.00 in 0.0 W/m2
22:29 0.0 °F -6.9 °F 30.73 in West 9.0 mph 9.0 mph 72% 0.00 in 0.0 W/m2
22:31 0.0 °F -6.9 °F 30.73 in WNW 9.2 mph 9.2 mph 72% 0.00 in 0.0 W/m2
22:32 0.0 °F -6.9 °F 30.73 in WNW 9.2 mph 9.2 mph 72% 0.00 in 0.0 W/m2
22:36 -0.1 °F -6.7 °F 30.73 in WNW 5.8 mph 5.8 mph 73% 0.00 in 0.0 W/m2
22:41 -0.2 °F -6.8 °F 30.73 in West 9.2 mph 9.2 mph 73% 0.00 in 0.0 W/m2
22:45 -0.3 °F -6.9 °F 30.73 in WNW 6.9 mph 6.9 mph 73% 0.00 in 0.0 W/m2
22:47 -0.3 °F -6.9 °F 30.73 in WNW 8.1 mph 8.1 mph 73% 0.00 in 0.0 W/m2
22:52 -0.3 °F -6.9 °F 30.73 in West 11.5 mph 11.5 mph 73% 0.00 in 0.0 W/m2
22:57 -0.4 °F -7.0 °F 30.73 in WNW 6.0 mph 6.0 mph 73% 0.00 in 0.0 W/m2
22:58 -0.4 °F -7.0 °F 30.73 in NW 8.1 mph 8.1 mph 73% 0.00 in 0.0 W/m2
23:00 -0.5 °F -7.1 °F 30.73 in WNW 5.0 mph 5.0 mph 73% 0.00 in 0.0 W/m2
23:03 -0.5 °F -7.1 °F 30.73 in WNW 5.8 mph 5.8 mph 73% 0.00 in 0.0 W/m2
23:08 -0.6 °F -6.9 °F 30.74 in WNW 6.0 mph 6.0 mph 74% 0.00 in 0.0 W/m2
23:09 -0.6 °F -6.9 °F 30.74 in WNW 5.8 mph 5.8 mph 74% 0.00 in 0.0 W/m2
23:14 -0.7 °F -7.0 °F 30.74 in WNW 8.1 mph 8.1 mph 74% 0.00 in 0.0 W/m2
23:16 -0.8 °F -7.1 °F 30.74 in WNW 5.8 mph 5.8 mph 74% 0.00 in 0.0 W/m2
23:20 -0.9 °F -7.2 °F 30.74 in WNW 5.8 mph 5.8 mph 74% 0.00 in 0.0 W/m2
23:22 -0.9 °F -7.2 °F 30.74 in WNW 3.5 mph 3.5 mph 74% 0.00 in 0.0 W/m2
23:27 -1.0 °F -7.0 °F 30.74 in WNW 6.9 mph 6.9 mph 75% 0.00 in 0.0 W/m2
23:28 -1.0 °F -7.0 °F 30.74 in WNW 7.0 mph 7.0 mph 75% 0.00 in 0.0 W/m2
23:33 -1.0 °F -7.0 °F 30.74 in NW 6.9 mph 6.9 mph 75% 0.00 in 0.0 W/m2
23:35 -1.1 °F -7.1 °F 30.74 in NW 5.8 mph 5.8 mph 75% 0.00 in 0.0 W/m2
23:38 -1.2 °F -7.2 °F 30.74 in WNW 9.2 mph 9.2 mph 75% 0.00 in 0.0 W/m2
23:41 -1.2 °F -7.2 °F 30.74 in WNW 9.2 mph 9.2 mph 75% 0.00 in 0.0 W/m2
23:43 -1.1 °F -7.1 °F 30.74 in WNW 5.8 mph 5.8 mph 75% 0.00 in 0.0 W/m2
23:48 -1.1 °F -7.1 °F 30.74 in WNW 8.1 mph 8.1 mph 75% 0.00 in 0.0 W/m2
23:49 -1.2 °F -7.2 °F 30.74 in WNW 6.9 mph 6.9 mph 75% 0.00 in 0.0 W/m2
23:54 -1.2 °F -6.9 °F 30.74 in WNW 4.6 mph 4.6 mph 76% 0.00 in 0.0 W/m2
23:55 -1.2 °F -6.9 °F 30.74 in WNW 5.8 mph 5.8 mph 76% 0.00 in 0.0 W/m2
Bourbonnais, Illinois, USA
Compliments of Weather Underground - 4 mb